Total_Precipitation_Accumulation
0.08 0.11 0.11 0.10 0.08 0.09 0.08 0.05 0.04 0.05 0.08 0.10 0.13 0.14 0.14 0.14 0.17 0.20 0.27 0.33 0.40 0.48 0.58 0.69 0.82 0.86 0.81
0.11 0.14 0.12 0.11 0.10 0.12 0.12 0.13 0.14 0.12 0.13 0.12 0.14 0.18 0.21 0.22 0.23 0.23 0.22 0.24 0.32 0.45 0.54 0.59 0.66 0.77 0.87
0.22 0.14 0.10 0.12 0.15 0.20 0.20 0.19 0.18 0.22 0.27 0.26 0.28 0.32 0.36 0.36 0.36 0.42 0.51 0.54 0.53 0.50 0.54 0.64 0.75 0.85 0.86
0.39 0.28 0.20 0.18 0.26 0.28 0.25 0.26 0.29 0.30 0.33 0.32 0.31 0.31 0.32 0.37 0.43 0.45 0.46 0.48 0.54 0.61 0.67 0.69 0.68 0.71 0.78
0.63 0.58 0.55 0.44 0.39 0.40 0.46 0.38 0.32 0.25 0.21 0.22 0.27 0.32 0.33 0.35 0.40 0.37 0.41 0.51 0.59 0.63 0.65 0.73 0.78 0.81 0.79
0.90 0.69 0.44 0.41 0.38 0.44 0.59 0.68 0.59 0.29 0.28 0.36 0.40 0.47 0.46 0.46 0.45 0.43 0.44 0.46 0.49 0.54 0.62 0.64 0.63 0.66 0.75
0.49 0.43 0.40 0.36 0.53 0.60 0.59 0.68 0.61 0.34 0.40 0.48 0.38 0.40 0.41 0.46 0.54 0.47 0.48 0.48 0.48 0.51 0.53 0.55 0.53 0.57 0.62
0.33 0.36 0.45 0.57 0.74 0.93 1.02 0.97 0.69 0.45 0.42 0.55 0.31 0.35 0.37 0.44 0.57 0.47 0.40 0.42 0.46 0.48 0.49 0.51 0.54 0.58 0.55
0.39 0.44 0.42 0.37 0.41 0.76 0.89 0.79 0.68 0.39 0.31 0.43 0.36 0.37 0.41 0.39 0.45 0.46 0.42 0.45 0.51 0.53 0.53 0.57 0.60 0.60 0.59
0.34 0.39 0.39 0.38 0.44 0.50 0.94 1.49 1.05 0.80 0.38 0.73 0.61 0.52 0.79 0.38 0.39 0.53 0.49 0.43 0.42 0.41 0.40 0.41 0.45 0.47 0.51
0.32 0.37 0.39 0.40 0.45 0.61 0.98 1.74 1.89 1.32 0.55 1.13 1.15 0.59 0.83 0.52 0.41 0.50 0.42 0.45 0.47 0.45 0.41 0.39 0.36 0.36 0.50
0.47 0.52 0.51 0.51 0.59 0.65 0.72 0.85 1.01 1.32 0.84 0.98 1.48 0.83 0.94 0.69 0.51 0.55 0.54 0.49 0.53 0.46 0.38 0.42 0.50 0.55 0.57
0.81 0.82 0.75 0.80 0.84 0.76 0.68 0.64 0.68 0.74 0.86 0.86 1.06 0.94 0.86 0.77 0.63 0.50 0.68 0.70 0.76 0.81 0.63 0.46 0.41 0.40 0.49
0.66 0.61 0.70 0.74 0.73 0.83 1.04 0.95 1.00 0.84 0.70 0.63 0.77 0.83 0.63 0.46 0.72 0.61 0.60 1.04 1.03 1.09 1.03 0.61 0.48 0.37 0.26
0.54 0.59 0.71 0.80 0.82 0.93 1.19 1.09 0.91 0.74 0.61 0.47 0.39 0.39 0.42 0.49 0.52 0.62 0.86 0.83 1.09 1.47 1.22 0.78 0.68 0.55 0.41
0.59 0.66 0.80 0.89 1.07 1.19 1.21 0.96 0.76 0.59 0.51 0.41 0.36 0.29 0.30 0.29 0.58 0.87 0.77 0.89 1.18 1.35 1.32 0.58 0.68 0.81 0.62
0.89 0.90 0.94 1.00 1.10 1.12 0.92 0.66 0.48 0.35 0.20 0.15 0.24 0.32 0.34 0.24 0.29 0.68 0.89 0.90 0.79 0.85 0.90 0.58 0.60 0.87 0.66